Location: Shenandoah County Park
(38.9356°N, 78.4524°W)
Time: 15:36:19
(UTC-04:00)

CAS-4B - Pass Details

Date: 27 April 2024
Orbit: 476 x 492 km, 43.0° (Epoch: 20 May)

Event Time Altitude Azimuth Distance (km) Brightness Sun altitude
Exits shadow 05:07:36 12° 290° (WNW) 1,560 ? -13.6°
Maximum altitude 05:11:08 85° 204° (SSW) 491 ? -13.0°
Drops below altitude 10° 05:14:57 10° 114° (ESE) 1,670 ? -12.4°
Sets 05:17:08 0° 114° (ESE) 2,554 ? -12.0°
